1998-067RA (45257 NORAD) Tracking and Keplerian Element Data

This shows tracking and keplerian element data for the satellite.

Feedback or suggestion? Click here.




ElementValue
Catalog45257
Name1998-067RA
Epoch Orbit677
Epoch Day93.84483178
Epoch Year2020
RAAN0.9805
Inclination51.6432
Eccentricity0.000915
Argument of Perigee83.6543
Mean Anonmoly276.5488
Mean Motion15.50293987
Decay Rate4.888E-05
L11 45257U 98067RA 20093.84483178 .00004888 00000-0 92591-4 0 9998
L22 45257 51.6432 0.9805 0009150 83.6543 276.5488 15.50293987 6771

Live tracking and technical data element details for 1998-067RA (NORAD 45257). 1998-067RA can be tracked NOW for your location showing map with azimuth and elevation plus other details from your city location.

Track the satellite on the map from your city or location and see movement details for azimuth, elevation, latitude, longitude, range, height, and movement on the map or in text.







IsCatalogInMostPopularTable: catalog: 45257, numindb: 200
Update: records affected: 1



GetName: 45257 1998-067RA

Hit Count: updated at: Fri, 10 Apr 2020 17:52:05 GMT